This demonstration page uses our WeatherBlox Daily Observations layout. Learn more.

Left ArrowRight Arrow

Hourly Observations for February 20, 2016

Temp ( °F °C ) Dew Point ( °F °C ) Humidity (%) Winds ( mph kmh ) Pressure ( in mb ) Visibility ( mi km ) Precip ( " mm )
12:53 am 00:53 Clear 44 6.7 39 3.9 83 83 N 3 6 30.26 1025 10 16 0.00 0.00
1:53 am 01:53 Mostly Clear 42 5.6 38 3.3 85 85 NNW 3 6 30.27 1025 10 16 0.00 0.00
2:53 am 02:53 Clear 40 4.4 36 2.2 86 86 Calm 30.27 1025 10 16 0.00 0.00
3:53 am 03:53 Clear 40 4.4 36 2.2 86 86 undefined N/A 30.27 1025 10 16 0.00 0.00
4:53 am 04:53 Clear 40 4.4 36 2.2 86 86 NW 6 9 30.27 1025 10 16 0.00 0.00
5:53 am 05:53 Clear 40 4.4 35 1.7 83 83 NW 5 7 30.26 1025 10 16 0.00 0.00
6:53 am 06:53 Clear 39 3.9 34 1.1 82 82 WNW 5 7 30.27 1025 10 16 0.00 0.00
7:53 am 07:53 Sunny 43 6.1 36 2.2 76 76 VRB 5 7 30.27 1025 10 16 0.00 0.00
8:53 am 08:53 Sunny 49 9.4 38 3.3 66 66 NW 6 9 30.26 1025 10 16 0.00 0.00
9:53 am 09:53 Sunny 53 11.7 36 2.2 52 52 NNW 10 17 30.26 1025 10 16 0.00 0.00
10:53 am 10:53 Sunny 57 13.9 37 2.8 47 47 NNW 8 13 30.25 1025 10 16 0.00 0.00
11:53 am 11:53 Sunny 59 15 38 3.3 46 46 N 10 17 30.24 1024 10 16 0.00 0.00
12:53 pm 12:53 Sunny 62 16.7 39 3.9 43 43 N 9 15 30.18 1022 10 16 0.00 0.00
1:53 pm 13:53 Sunny 63 17.2 38 3.3 40 40 NNW 7 11 30.15 1021 10 16 0.00 0.00
2:53 pm 14:53 Sunny 63 17.2 35 1.7 35 35 VRB 6 9 30.15 1021 10 16 0.00 0.00
3:53 pm 15:53 Sunny 63 17.2 37 2.8 38 38 N 7 11 30.14 1021 10 16 0.00 0.00
4:53 pm 16:53 Sunny 64 17.8 37 2.8 37 37 Calm 30.13 1020 10 16 0.00 0.00
5:53 pm 17:53 Clear 57 13.9 38 3.3 49 49 NW 3 6 30.13 1020 10 16 0.00 0.00
6:53 pm 18:53 Clear 52 11.1 38 3.3 59 59 W 5 7 30.15 1021 10 16 0.00 0.00
7:53 pm 19:53 Clear 50 10 38 3.3 63 63 WNW 6 9 30.16 1021 10 16 0.00 0.00
8:53 pm 20:53 Clear 47 8.3 40 4.4 77 77 Calm 30.18 1022 10 16 0.00 0.00
9:53 pm 21:53 Clear 46 7.8 39 3.9 77 77 ENE 3 6 30.19 1022 10 16 0.00 0.00
10:53 pm 22:53 Clear 43 6.1 38 3.3 82 82 NW 3 6 30.19 1022 10 16 0.00 0.00
11:53 pm 23:53 Clear 44 6.7 37 2.8 76 76 Calm 30.20 1023 10 16 0.00 0.00

Powered by AerisWeather